Storm Lake, IA

10:13 PM CDT on May 25, 2017 (GMT -0500)
Storm Lake Municipal

Weather History for KSLB - January, 2012

Change the Weather History Date:

Monday, January 30, 2012

  Actual Average Record
Temperature  
Mean Temperature 42 °F -  
Max Temperature 55 °F 27 °F 55 °F (2012)
Min Temperature 30 °F 13 °F -11 °F (2004)
Degree Days  
Heating Degree Days 22    
Moisture  
Dew Point 24 °F    
Average Humidity 52    
Maximum Humidity 65    
Minimum Humidity 35    
Precipitation  
Precipitation 0.00 in - - ()
Sea Level Pressure  
Sea Level Pressure 29.72 in    
Wind  
Wind Speed 12 mph (SW)    
Max Wind Speed 15 mph    
Max Gust Speed -    
Visibility 10 miles    
Events      
Averages and records for this station are not official NWS values.
T = Trace of Precipitation, MM = Missing Value Source: NWS Daily Summary

Daily Weather History Graph

Daily Weather History Graph

Search for Another Location

Airport or City:

Trip Planner

Search our weather history database for the weather conditions in past years. The results will help you decide how hot, cold, wet, or windy it might be!

Date:

Astronomy

Jan. 30, 2012 Rise Set
Actual Time 7:37 AM CST 5:31 PM CST
Civil Twilight 7:07 AM CST 6:01 PM CST
Nautical Twilight 6:33 AM CST 6:35 PM CST
Astronomical Twilight 6:00 AM CST 7:08 PM CST
Moon 10:49 AM CST (1/30) 12:27 AM CST (1/30)
Length of Visible Light 10h 53m
Length of Day
9h 53m
Waxing Crescent, 46% of the Moon is Illuminated
Jan 30
Waxing Crescent
Jan 30
First Quarter
Feb 7
Full
Feb 14
Last Quarter
Feb 21
New

Hourly Weather History & Observations

Time (CST) Temp. Windchill Dew Point Humidity Pressure Visibility Wind Dir Wind Speed Gust Speed Precip Events Conditions
12:15 AM 30.9 °F 21.2 °F 20.3 °F 65% 29.84 in 10.0 mi South 12.7 mph - N/A   Scattered Clouds
12:35 AM 31.8 °F 21.8 °F 20.3 °F 62% 29.83 in 10.0 mi South 13.8 mph - N/A   Scattered Clouds
12:55 AM 32.0 °F 22.1 °F 20.1 °F 62% 29.83 in 10.0 mi SSW 13.8 mph - N/A   Scattered Clouds
1:15 AM 32.0 °F 22.1 °F 20.1 °F 62% 29.81 in 10.0 mi SSW 13.8 mph - N/A   Scattered Clouds
1:35 AM 32.0 °F 23.6 °F 20.3 °F 62% 29.80 in 10.0 mi SSW 10.4 mph - N/A   Clear
1:55 AM 32.4 °F 24.6 °F 20.3 °F 61% 29.79 in 10.0 mi SSW 9.2 mph - N/A   Clear
2:15 AM 32.2 °F 23.8 °F 20.3 °F 62% 29.79 in 10.0 mi SSW 10.4 mph - N/A   Clear
2:35 AM 33.1 °F 25.5 °F 20.1 °F 59% 29.78 in 10.0 mi SSW 9.2 mph - N/A   Clear
3:15 AM 35.1 °F 25.9 °F 20.3 °F 55% 29.77 in 10.0 mi SSW 13.8 mph - N/A   Scattered Clouds
3:35 AM 36.0 °F 26.7 °F 20.1 °F 53% 29.75 in 10.0 mi SW 15.0 mph - N/A   Scattered Clouds
3:55 AM 36.3 °F 27.1 °F 20.3 °F 52% 29.75 in 10.0 mi SW 15.0 mph - N/A   Clear
4:15 AM 36.5 °F 28.2 °F 20.5 °F 52% 29.74 in 10.0 mi SW 12.7 mph - N/A   Mostly Cloudy
4:55 AM 35.2 °F 27.1 °F 20.7 °F 55% 29.73 in 10.0 mi SW 11.5 mph - N/A   Clear
5:15 AM 35.8 °F 27.8 °F 21.2 °F 55% 29.72 in 10.0 mi SW 11.5 mph - N/A   Clear
5:35 AM 35.6 °F 28.0 °F 21.6 °F 57% 29.72 in 10.0 mi SW 10.4 mph - N/A   Clear
5:55 AM 35.4 °F 29.0 °F 21.6 °F 57% 29.73 in 10.0 mi SW 8.1 mph - N/A   Clear
6:15 AM 35.1 °F 27.4 °F 21.7 °F 58% 29.73 in 10.0 mi WSW 10.4 mph - N/A   Clear
6:35 AM 33.8 °F 24.3 °F 21.4 °F 60% 29.72 in 10.0 mi WSW 13.8 mph - N/A   Clear
6:55 AM 33.4 °F 24.3 °F 21.0 °F 60% 29.72 in 10.0 mi WSW 12.7 mph - N/A   Clear
7:35 AM 32.9 °F 23.7 °F 21.0 °F 62% 29.73 in 10.0 mi WSW 12.7 mph - N/A   Clear
7:55 AM 32.2 °F 22.7 °F 21.2 °F 64% 29.73 in 10.0 mi WSW 12.7 mph - N/A   Clear
8:15 AM 33.8 °F 25.3 °F 21.6 °F 61% 29.73 in 10.0 mi SW 11.5 mph - N/A   Clear
8:35 AM 35.6 °F 27.1 °F 22.1 °F 58% 29.73 in 10.0 mi SW 12.7 mph - N/A   Clear
8:55 AM 36.7 °F 28.0 °F 23.0 °F 58% 29.73 in 10.0 mi WSW 13.8 mph - N/A   Clear
9:15 AM 37.4 °F 28.9 °F 23.0 °F 56% 29.73 in 10.0 mi WSW 13.8 mph - N/A   Clear
9:35 AM 38.5 °F 31.1 °F 23.9 °F 56% 29.74 in 10.0 mi SW 11.5 mph - N/A   Clear
9:55 AM 39.7 °F 31.5 °F 24.6 °F 55% 29.73 in 10.0 mi SW 15.0 mph - N/A   Clear
10:15 AM 41.0 °F 33.9 °F 25.2 °F 53% 29.73 in 10.0 mi SW 12.7 mph - N/A   Clear
10:35 AM 42.6 °F 35.2 °F 24.3 °F 48% 29.73 in 10.0 mi WSW 15.0 mph - N/A   Clear
10:55 AM 43.5 °F 36.7 °F 25.2 °F 48% 29.73 in 10.0 mi WSW 13.8 mph - N/A   Clear
11:15 AM 45.0 °F 38.2 °F 25.7 °F 47% 29.72 in 10.0 mi WSW 15.0 mph - N/A   Clear
11:35 AM 46.0 °F 39.6 °F 25.9 °F 45% 29.72 in 10.0 mi WSW 15.0 mph - N/A   Clear
11:55 AM 46.9 °F - 26.4 °F 45% 29.72 in 10.0 mi WSW 13.8 mph - N/A   Clear
12:15 PM 48.2 °F - 26.2 °F 42% 29.72 in 10.0 mi WSW 12.7 mph - N/A   Clear
12:35 PM 50.0 °F - 27.5 °F 42% 29.71 in 10.0 mi WSW 13.8 mph - N/A   Clear
12:55 PM 51.3 °F - 27.5 °F 40% 29.70 in 10.0 mi West 10.4 mph - N/A   Clear
1:35 PM 52.9 °F - 27.9 °F 38% 29.70 in 10.0 mi WSW 11.5 mph - N/A   Clear
1:55 PM 54.0 °F - 27.5 °F 36% 29.69 in 10.0 mi WSW 12.7 mph - N/A   Clear
2:15 PM 54.5 °F - 27.7 °F 36% 29.69 in 10.0 mi WSW 11.5 mph - N/A   Clear
2:35 PM 54.9 °F - 27.5 °F 35% 29.68 in 10.0 mi WSW 12.7 mph - N/A   Clear
2:55 PM 55.6 °F - 28.8 °F 36% 29.68 in 10.0 mi SW 11.5 mph - N/A   Clear
3:15 PM 54.7 °F - 28.2 °F 36% 29.69 in 10.0 mi WSW 12.7 mph - N/A   Clear
3:35 PM 54.5 °F - 28.4 °F 37% 29.69 in 10.0 mi WSW 11.5 mph - N/A   Clear
3:55 PM 53.8 °F - 28.6 °F 38% 29.70 in 10.0 mi SW 10.4 mph - N/A   Clear
4:15 PM 53.1 °F - 29.7 °F 41% 29.68 in 10.0 mi SW 10.4 mph - N/A   Clear
4:35 PM 50.9 °F - 30.2 °F 45% 29.67 in 10.0 mi SW 10.4 mph - N/A   Clear
4:55 PM 47.7 °F - 29.7 °F 50% 29.68 in 10.0 mi SSW 10.4 mph - N/A   Clear
5:15 PM 43.7 °F 38.1 °F 28.8 °F 56% 29.68 in 10.0 mi SSW 10.4 mph - N/A   Clear
5:35 PM 44.6 °F 40.2 °F 27.3 °F 51% 29.69 in 10.0 mi SSW 8.1 mph - N/A   Clear
5:55 PM 43.9 °F 38.3 °F 26.1 °F 50% 29.68 in 10.0 mi SSW 10.4 mph - N/A   Clear
6:15 PM 42.1 °F 36.1 °F 25.7 °F 52% 29.68 in 10.0 mi South 10.4 mph - N/A   Clear
6:35 PM 41.2 °F 35.5 °F 26.2 °F 55% 29.68 in 10.0 mi South 9.2 mph - N/A   Clear
6:55 PM 41.4 °F 36.2 °F 25.7 °F 54% 29.68 in 10.0 mi South 8.1 mph - N/A   Clear
7:15 PM 39.4 °F 33.8 °F 25.3 °F 57% 29.68 in 10.0 mi South 8.1 mph - N/A   Clear
7:35 PM 40.1 °F 34.7 °F 25.2 °F 55% 29.68 in 10.0 mi South 8.1 mph - N/A   Clear
7:55 PM 40.3 °F 35.5 °F 24.8 °F 54% 29.68 in 10.0 mi SSW 6.9 mph - N/A   Clear
8:15 PM 38.8 °F 33.2 °F 25.5 °F 59% 29.68 in 10.0 mi South 8.1 mph - N/A   Clear
8:35 PM 37.8 °F 30.7 °F 25.7 °F 62% 29.67 in 10.0 mi South 10.4 mph - N/A   Clear
8:55 PM 41.4 °F 35.2 °F 25.7 °F 54% 29.67 in 10.0 mi SSW 10.4 mph - N/A   Clear
9:15 PM 41.4 °F 34.3 °F 26.6 °F 56% 29.67 in 10.0 mi SSW 12.7 mph - N/A   Clear
9:35 PM 43.7 °F 36.6 °F 26.6 °F 51% 29.67 in 10.0 mi SW 15.0 mph - N/A   Clear
9:55 PM 42.3 °F 35.9 °F 26.6 °F 54% 29.66 in 10.0 mi SSW 11.5 mph - N/A   Clear
10:15 PM 41.5 °F 33.8 °F 27.0 °F 56% 29.66 in 10.0 mi SSW 15.0 mph - N/A   Clear
10:35 PM 41.7 °F 34.1 °F 27.0 °F 56% 29.66 in 10.0 mi SW 15.0 mph - N/A   Clear
10:55 PM 42.6 °F 34.6 °F 27.0 °F 54% 29.66 in 10.0 mi SW 17.3 mph - N/A   Clear
11:15 PM 42.4 °F 34.1 °F 27.1 °F 55% 29.66 in 10.0 mi SW 18.4 mph - N/A   Clear
11:35 PM 42.3 °F 34.1 °F 27.3 °F 56% 29.66 in 10.0 mi SW 17.3 mph - N/A   Clear
11:55 PM 42.1 °F 33.9 °F 27.5 °F 56% 29.66 in 10.0 mi SW 17.3 mph - N/A   Clear